SCP
1 0 0 0 0 0 0 0 0 0 0 0 0 0 0 0 0 0 0 0 0 0 1 1 1 1 1 0 0 0 0 0 0 1 1 1 1 1 1 1 1 1 1 1 1 1 1 1 1
1 0 0 0 0 0 0 0 0 0 0 0 0 0 0 0 0 0 0 0 0 0 0 1 1 1 1 1 0 0 0 0 1 1 1 1 1 1 1 1 1 1 1 1 1 1 1 1 1
1 1 0 0 0 0 0 0 0 0 0 0 0 0 0 0 0 0 0 0 0 0 0 1 1 1 1 0 0 0 0 0 0 0 0 0 0 1 1 1 1 1 1 1 1 1 1 1 1
1 1 1 0 0 0 0 0 0 0 0 0 0 0 0 0 0 0 0 0 0 0 0 0 1 1 0 0 0 0 0 0 0 0 0 0 0 0 1 1 1 1 1 1 1 1 1 1 1
1 1 1 0 0 0 0 0 0 0 0 0 0 0 0 0 0 0 0 0 0 0 0 0 0 0 0 0 0 0 0 0 0 0 0 0 0 0 0 0 1 1 1 1 1 1 1 1 1
1 1 1 0 0 0 0 0 0 0 0 0 0 0 0 0 0 0 0 0 0 0 0 0 0 0 0 0 0 0 0 0 0 1 1 1 0 0 0 0 0 0 1 1 1 1 1 1 1
1 1 0 0 0 0 0 0 0 0 0 0 0 0 0 0 0 0 0 0 0 0 0 0 0 0 0 0 0 0 0 0 1 1 1 1 0 0 0 0 0 0 0 0 1 1 1 1 1
1 1 0 0 0 0 0 0 0 0 0 0 0 0 0 0 0 0 0 0 0 0 0 0 0 0 0 0 0 0 0 0 1 1 1 0 0 0 0 0 0 0 0 0 0 1 1 1 1
1 1 0 0 1 1 0 0 0 0 0 0 0 0 0 0 0 1 1 0 0 0 0 0 0 0 0 0 0 0 0 0 0 0 0 0 0 0 0 0 0 0 0 0 0 0 0 1 1
1 1 1 1 1 1 0 0 0 0 0 0 0 0 0 0 1 1 0 0 0 0 0 0 0 0 0 0 0 0 0 0 0 0 0 0 0 0 0 0 0 0 0 0 0 0 0 0 1
1 1 1 1 1 1 0 0 0 0 0 0 0 0 0 0 0 0 0 0 0 0 0 0 0 0 0 0 0 0 0 0 0 0 0 0 0 0 0 0 0 0 0 0 1 1 0 0 1
1 1 1 1 1 0 0 0 0 0 0 0 0 0 0 0 0 0 0 0 0 0 0 0 0 0 0 0 0 0 0 0 0 0 0 0 0 0 0 0 0 0 0 0 1 1 1 1 1
1 1 1 1 1 0 0 0 0 0 0 0 0 0 0 0 0 0 0 0 0 0 0 0 0 0 0 0 0 0 0 0 0 0 0 0 0 0 0 0 0 0 0 0 1 1 1 1 1
1 1 1 1 0 0 0 0 0 0 0 0 0 0 0 1 1 0 0 0 0 0 0 0 0 0 0 0 0 0 0 0 0 0 0 0 0 0 0 0 0 0 0 0 0 1 1 1 1
1 1 1 1 0 0 0 0 0 0 0 0 0 0 1 1 1 1 0 0 0 0 0 0 0 0 0 0 0 0 0 0 0 0 0 0 0 0 0 0 0 0 0 0 0 0 1 1 1
1 1 1 0 0 0 0 0 0 0 0 0 0 0 1 1 1 1 0 0 0 0 0 0 0 0 0 0 0 0 0 0 0 0 0 0 0 0 0 0 0 0 0 0 0 0 0 0 1
0 0 0 0 0 0 0 0 0 0 0 0 0 0 1 1 1 1 0 0 0 0 0 0 0 0 0 0 0 0 0 0 0 0 0 0 0 0 0 0 0 0 0 0 0 0 0 0 1
0 0 0 0 0 0 0 0 0 0 0 0 0 0 0 0 1 0 0 0 0 0 0 0 0 1 1 1 1 0 0 0 0 0 0 0 0 0 0 0 0 0 0 0 0 0 0 0 0
0 0 0 0 0 0 0 0 0 0 0 0 0 0 0 0 0 0 0 0 0 0 0 0 1 1 1 1 1 1 1 0 0 0 0 0 0 0 0 0 0 0 0 0 0 0 0 0 0
0 0 0 0 0 0 0 0 0 0 0 0 0 0 0 0 0 0 0 0 0 0 0 0 0 0 1 1 1 1 0 0 0 0 0 0 0 0 0 0 0 0 0 0 0 0 0 0 0
0 0 0 0 0 0 0 0 0 0 0 0 0 0 0 0 0 0 0 0 0 0 0 0 0 0 0 0 0 0 0 0 0 0 0 0 0 0 0 0 0 0 0 0 0 0 0 0 0
0 0 0 0 0 0 0 0 0 0 0 0 0 0 0 0 0 0 0 0 0 0 0 0 0 0 0 0 0 0 0 0 0 0 0 0 0 0 0 0 0 0 0 0 0 0 0 0 0
0 0 0 0 0 0 0 0 0 0 0 0 0 0 0 0 0 0 0 0 0 0 0 0 0 0 0 0 0 0 0 0 0 0 0 0 0 0 0 0 0 0 0 0 0 0 0 0 0
0 0 0 0 0 0 0 0 0 0 0 0 0 0 0 0 0 0 0 0 0 0 0 0 0 0 0 0 0 0 0 0 0 0 0 0 0 0 0 0 0 0 0 0 0 0 0 0 0
0 0 0 0 0 0 0 0 0 0 0 0 0 0 0 0 0 0 0 0 0 0 0 0 0 0 0 0 0 0 0 0 0 0 0 0 0 0 0 0 0 0 0 0 0 0 0 0 0
0 0 0 0 0 0 0 0 0 0 0 0 0 0 0 0 0 0 0 0 0 0 0 0 0 0 0 0 0 0 0 0 0 0 0 0 0 0 0 0 0 0 0 0 0 0 0 0 0
0 0 0 0 0 0 0 0 0 0 0 0 0 0 0 0 0 0 0 0 0 0 0 0 0 0 0 0 0 0 0 0 0 0 0 0 0 0 0 0 0 0 0 0 0 0 0 0 0
0 0 0 0 0 0 0 0 0 0 0 0 0 0 0 0 0 0 0 0 0 0 0 0 0 0 0 0 0 0 0 0 0 0 0 0 0 0 0 0 0 0 0 0 0 0 0 0 0
0 0 0 0 0 0 0 0 0 0 0 0 0 0 0 0 0 0 0 0 0 0 0 0 0 0 0 0 0 0 0 0 0 0 0 0 0 0 0 0 0 0 0 0 0 0 0 0 0
0 0 0 0 0 0 0 0 0 0 0 0 0 0 0 0 0 0 0 0 0 0 0 0 0 0 0 0 0 0 0 0 0 0 0 0 0 0 0 0 0 0 0 0 0 0 0 0 0
Wind_Speed
6 5 3 3 4 3 2 3 2 2 2 3 3 3 4 6 5 6 6 7 8 9 9 9 8 8 8 8 7 7 7 6 6 5 4 4 3 2 1 1 0 1 1 1 1 1 2 2 3
5 4 3 4 4 2 4 3 3 3 4 4 3 3 4 6 6 7 7 8 9 9 8 9 9 8 7 7 7 7 7 6 5 5 4 3 2 2 1 1 1 2 2 2 2 3 3 3 3
4 3 3 3 2 1 4 3 3 4 4 2 3 3 4 5 6 6 8 10 10 9 8 10 9 8 8 7 7 7 6 6 5 4 3 3 2 2 2 3 3 3 3 3 4 4 4 4 4
3 3 4 4 1 3 2 2 3 5 4 2 2 5 5 5 4 8 11 11 10 9 9 10 8 8 7 7 7 6 6 5 4 3 3 2 2 2 3 3 3 4 4 4 4 4 4 4 4
3 3 4 3 0 2 2 2 3 4 3 3 3 5 7 5 8 11 11 10 10 9 8 9 8 7 7 6 6 6 5 4 4 3 3 3 3 3 3 3 4 4 4 5 5 5 5 4 5
3 3 4 2 1 1 2 1 3 4 4 4 4 5 6 8 10 11 10 9 9 9 8 9 9 6 6 6 5 5 4 4 4 3 3 3 4 4 4 4 4 4 4 5 5 5 5 5 5
4 3 3 1 1 2 3 1 2 2 3 3 3 5 7 9 10 10 10 9 8 8 7 7 8 8 7 5 5 4 4 4 3 3 3 3 4 4 4 4 4 4 4 5 5 5 5 5 5
3 4 4 2 1 3 3 2 1 1 3 3 2 3 7 11 11 10 9 8 8 7 7 6 6 5 5 6 6 4 4 4 3 4 4 3 1 1 2 3 3 4 5 5 5 5 5 5 5
4 5 3 1 1 3 2 1 2 1 4 3 2 3 8 14 13 11 9 8 8 6 6 6 5 4 3 3 4 3 3 2 1 2 2 2 3 3 1 5 5 5 5 5 5 4 4 6 5
5 5 2 1 1 1 1 1 2 3 4 4 6 7 11 14 13 12 10 10 9 8 7 5 5 4 3 2 2 1 1 1 1 2 2 2 3 3 4 3 2 3 4 3 2 4 6 7 4
6 4 2 1 0 0 2 1 2 3 3 3 6 11 13 14 13 11 10 8 8 7 6 5 5 4 2 2 1 1 1 1 1 2 2 2 3 2 3 2 1 2 4 4 2 5 4 4 2
6 4 2 1 1 2 2 2 2 3 1 3 5 11 14 14 13 11 10 8 7 7 6 5 4 3 3 1 1 0 0 1 1 2 3 2 2 3 3 3 4 3 3 3 4 4 4 4 4
8 4 3 2 2 2 3 3 2 3 2 4 7 11 13 13 12 10 9 8 8 7 6 5 4 3 2 2 0 1 1 1 1 2 3 3 3 4 4 3 3 4 4 4 4 4 4 4 3
5 4 3 3 3 3 4 3 4 3 4 7 9 11 12 12 11 10 9 9 8 7 7 6 5 4 3 2 1 0 1 0 1 1 3 3 3 3 4 4 3 4 4 4 5 4 4 3 3
5 5 4 4 4 2 4 5 5 3 6 8 9 9 10 11 10 10 9 9 8 7 7 6 5 4 3 2 1 0 1 1 1 1 3 3 3 4 4 4 4 4 4 5 4 5 4 3 3
7 7 5 5 4 3 6 3 3 4 6 7 7 7 9 10 10 9 8 8 7 7 7 6 5 5 4 2 1 0 0 1 1 1 2 4 4 5 4 4 4 4 4 4 3 4 3 3 3
8 8 7 6 5 4 6 3 4 4 5 5 6 7 8 9 10 9 8 8 7 7 7 7 6 5 4 3 2 1 0 0 1 1 2 3 4 5 4 4 4 4 4 4 4 3 4 3 3
9 8 7 6 5 6 6 4 3 4 5 5 5 6 7 8 9 8 8 8 7 7 7 6 6 5 4 3 2 1 1 0 0 1 2 3 3 4 4 3 4 4 3 3 4 3 3 3 3
6 7 6 4 3 5 5 5 4 4 5 6 6 6 6 7 7 8 8 8 8 8 7 7 7 6 5 3 2 1 1 1 0 1 1 2 3 4 4 4 4 4 4 4 4 3 3 2 2
6 7 6 4 3 4 3 4 3 3 4 4 4 5 5 6 7 8 8 8 9 8 7 7 7 6 5 3 2 1 0 1 1 1 1 2 3 3 3 4 4 3 3 4 4 3 3 2 2
5 4 5 4 4 4 3 4 4 4 4 3 3 3 4 5 6 8 8 8 8 8 8 6 6 6 6 5 2 2 1 2 1 1 0 2 2 3 4 4 4 4 4 3 4 3 3 2 2
5 2 3 4 5 4 3 4 5 5 5 4 4 4 3 4 5 6 7 8 8 7 6 7 6 6 6 6 4 3 2 1 1 1 1 1 1 2 3 4 4 4 3 3 3 3 2 3 2
3 3 3 3 3 4 3 3 6 4 4 4 4 3 3 4 5 6 7 7 6 6 6 6 6 6 6 5 4 4 3 1 1 1 1 2 1 2 3 4 4 4 3 3 3 3 3 2 3
5 6 5 4 5 4 2 2 5 4 3 3 3 3 3 4 4 5 5 5 5 5 5 6 6 6 6 6 5 5 3 3 2 2 2 2 1 2 2 3 3 3 3 3 3 3 2 2 2
7 6 5 6 5 4 2 1 5 5 4 2 2 2 3 4 4 4 5 5 5 6 6 6 6 6 6 6 6 5 5 4 4 3 2 3 2 2 3 3 3 3 3 3 3 2 2 2 2
6 5 2 3 5 6 4 3 6 5 4 3 3 3 4 3 3 3 3 4 4 5 6 6 7 6 6 6 6 5 5 4 3 3 3 3 3 3 3 3 3 3 3 3 2 3 2 2 2
4 3 3 0 4 5 6 6 5 4 5 5 5 5 4 4 3 2 2 2 3 4 5 6 7 6 6 6 6 5 5 4 4 4 4 3 3 3 4 4 3 2 2 3 3 2 2 2 3
3 1 4 4 4 5 6 5 3 3 4 4 4 4 5 4 3 3 2 2 2 2 3 5 6 6 6 6 5 4 5 5 4 4 4 4 4 3 4 4 3 2 2 3 3 3 2 3 2
5 4 2 1 1 2 5 5 4 2 3 3 4 4 5 4 4 3 3 2 1 2 2 3 5 5 5 6 6 5 5 5 5 4 4 5 4 4 4 4 4 3 3 3 2 3 3 3 2
3 2 4 2 3 1 2 5 4 2 3 3 4 5 5 5 5 4 3 3 2 1 1 2 3 4 4 5 5 5 5 5 6 5 5 5 5 5 5 4 4 3 3 3 3 3 3 3 3
Wind_Direction
163 170 204 233 235 220 108 98 105 116 103 77 72 59 51 40 17 55 99 128 125 128 129 133 128 124 121 119 115 110 104 100 97 95 93 92 90 85 79 68 3 314 306 308 305 308 306 312 315
160 175 226 242 254 186 106 112 120 89 101 114 100 81 70 69 63 94 123 128 131 127 129 122 122 120 116 113 108 105 103 99 94 87 79 71 62 44 14 330 314 317 317 313 307 299 294 295 303
163 221 254 253 261 27 89 108 104 106 130 147 109 74 54 78 101 108 122 137 134 126 124 116 122 119 116 112 107 102 97 90 83 77 70 60 41 20 344 322 316 315 312 303 299 296 296 298 300
192 217 236 252 261 53 64 105 123 134 140 150 129 102 85 75 95 113 129 139 133 128 125 119 122 117 114 109 102 96 92 85 77 68 58 41 20 3 347 335 326 313 306 306 300 295 294 300 302
224 244 237 232 36 64 70 105 160 161 146 148 139 103 99 93 106 123 133 138 136 132 127 124 123 119 113 108 104 98 91 84 73 65 50 32 12 357 350 343 334 325 314 310 308 296 289 291 296
219 239 244 214 120 85 96 138 182 170 137 134 136 115 100 121 130 132 136 140 136 134 132 128 129 122 114 112 107 100 91 81 68 53 40 26 12 358 347 338 333 325 319 317 310 301 290 281 282
242 240 250 238 172 122 85 115 182 169 144 133 136 118 119 138 135 138 140 139 137 138 135 135 136 135 128 113 104 99 88 71 56 44 33 28 15 1 348 336 329 319 318 317 315 307 296 287 281
261 255 239 219 171 99 75 123 146 189 105 102 153 133 137 146 143 143 141 143 146 147 145 141 136 132 132 129 115 95 81 67 57 48 37 22 352 341 340 302 357 331 324 315 311 311 304 293 282
233 241 238 196 118 101 106 134 113 138 135 137 129 78 120 140 149 150 152 156 155 156 157 152 147 137 128 115 113 129 119 94 146 124 91 287 317 341 300 28 10 348 338 328 319 312 303 282 237
217 237 232 54 34 96 136 149 139 169 162 155 136 122 136 151 160 163 167 165 164 166 167 165 162 154 148 129 124 117 104 100 351 3 0 335 350 345 333 81 349 331 320 285 306 288 262 257 252
214 230 185 168 92 199 193 176 190 194 185 173 156 152 156 164 169 172 171 168 164 165 166 173 173 165 160 152 128 54 25 25 360 355 353 334 330 324 320 322 271 287 288 299 293 262 276 283 284
212 209 199 175 170 230 218 208 218 225 191 112 140 153 161 173 175 177 174 170 169 171 174 176 183 177 173 159 133 225 343 350 359 347 342 338 336 328 343 322 332 322 321 325 309 304 300 295 287
213 197 183 196 210 247 237 224 236 229 212 162 148 159 169 177 177 178 177 176 178 177 182 179 183 187 173 148 203 251 358 342 6 5 331 339 330 331 339 323 327 316 322 312 306 301 313 302 296
197 197 199 213 224 230 238 237 224 201 172 165 167 171 176 181 182 179 184 185 184 183 183 175 182 181 195 189 206 350 347 341 332 352 339 340 343 337 333 329 329 325 322 320 308 305 304 295 293
186 194 200 206 218 212 230 225 213 181 172 173 176 175 180 183 187 191 190 189 187 186 185 180 184 186 194 211 204 225 290 320 349 359 343 351 348 336 336 330 331 331 321 311 308 306 297 291 283
194 204 200 180 196 190 224 211 144 162 174 175 176 175 188 189 196 194 192 193 188 187 186 178 181 188 184 190 211 207 292 336 347 354 347 346 347 345 339 331 334 335 325 316 310 300 293 285 286
192 199 190 171 183 188 215 202 153 161 183 186 185 188 197 196 199 194 197 198 194 192 189 184 182 185 176 176 188 188 190 326 337 349 358 346 348 340 338 337 334 335 329 325 318 319 310 303 303
184 187 181 177 165 199 211 213 174 176 200 201 196 196 201 205 198 191 193 194 194 194 193 183 176 183 171 176 182 163 194 211 336 352 5 348 341 343 338 328 334 336 329 330 321 317 306 301 293
185 189 177 155 157 208 213 229 217 193 201 205 199 199 206 202 188 182 184 187 193 194 193 184 184 178 177 174 192 197 200 219 242 324 350 337 338 340 339 326 339 335 335 329 322 320 305 294 297
192 186 168 148 166 218 223 236 213 189 205 216 209 199 195 187 179 175 183 186 194 194 193 191 189 183 181 178 191 203 270 280 340 308 314 332 337 336 331 333 328 334 327 324 326 321 308 309 294
187 186 161 150 163 185 231 186 165 153 164 173 193 198 191 186 182 174 182 187 192 195 195 194 189 181 179 174 173 169 176 220 200 224 294 331 329 333 331 331 326 328 324 333 325 316 309 305 304
160 165 183 186 193 150 228 148 125 135 141 154 173 182 179 171 175 173 180 188 193 193 193 195 187 184 176 178 192 205 233 275 319 304 312 300 306 326 327 323 319 320 326 326 319 329 305 296 294
113 133 173 189 188 165 193 175 115 125 132 143 159 166 165 164 172 176 184 191 193 189 189 192 184 184 179 186 189 219 240 278 292 279 279 287 308 316 321 320 318 318 318 326 327 324 310 296 299
145 149 146 185 209 167 116 176 104 98 86 107 132 145 151 153 160 170 175 185 188 185 185 187 187 186 182 193 201 219 234 249 262 267 285 283 290 305 330 321 315 313 319 321 320 315 309 300 300
203 197 173 175 179 125 98 139 88 62 37 34 81 120 135 143 157 163 169 183 185 187 187 188 190 191 191 201 210 218 225 238 248 266 272 285 296 308 331 323 318 322 319 318 311 298 302 285 287
196 240 236 167 148 130 154 127 88 49 40 54 75 93 109 122 140 153 170 182 190 193 190 193 196 198 195 206 213 220 219 233 250 257 275 278 292 312 320 311 316 316 313 305 297 288 285 280 273
188 215 325 347 131 142 129 122 112 75 77 77 81 86 88 96 111 132 149 170 187 193 195 199 203 204 201 208 215 221 224 232 245 254 263 274 280 297 303 298 303 304 300 300 295 284 285 280 278
319 192 210 214 165 145 138 138 114 95 76 82 83 83 83 88 99 106 121 142 165 179 191 198 206 211 208 212 215 218 228 231 244 256 261 270 278 287 292 295 297 292 282 284 289 288 295 278 263
177 188 206 170 280 183 150 118 63 77 83 93 88 81 78 75 73 71 78 94 114 140 167 191 202 211 211 214 216 217 222 228 235 244 254 261 271 271 280 287 291 293 283 275 271 281 281 275 262
238 235 229 211 140 214 148 106 78 76 79 87 86 81 76 73 73 71 67 71 78 108 174 194 206 211 213 218 220 224 226 227 235 240 246 253 263 267 275 279 279 283 281 279 279 279 274 269 269